Time,TemperatureF,DewpointF,PressureIn,WindDirection,WindDirectionDegrees,WindSpeedMPH,WindSpeedGustMPH,Humidity,HourlyPrecipIn,Conditions,Clouds,dailyrainin,SoftwareType,DateUTC
2013-03-30 00:00:00,53.8,39.0,30.19,SE,134,0.0,-999.0,57,-99.99,,,0.00,weatherlink.com 1.10,2013-03-30 04:00:00,
2013-03-30 00:15:00,53.5,38.0,30.18,SE,134,0.0,-999.0,57,-99.99,,,0.00,weatherlink.com 1.10,2013-03-30 04:15:00,
2013-03-30 00:30:00,53.2,39.0,30.18,ESE,103,0.0,-999.0,59,-99.99,,,0.00,weatherlink.com 1.10,2013-03-30 04:30:00,
2013-03-30 00:45:00,53.1,39.0,30.18,SE,133,0.0,-999.0,59,-99.99,,,0.00,weatherlink.com 1.10,2013-03-30 04:45:00,
2013-03-30 01:00:00,52.8,39.0,30.18,SE,141,0.0,-999.0,60,-99.99,,,0.00,weatherlink.com 1.10,2013-03-30 05:00:00,
2013-03-30 01:15:00,52.6,39.0,30.17,SE,141,0.0,-999.0,60,-99.99,,,0.00,weatherlink.com 1.10,2013-03-30 05:15:00,
2013-03-30 01:30:00,52.4,40.0,30.18,ESE,113,0.0,-999.0,62,-99.99,,,0.00,weatherlink.com 1.10,2013-03-30 05:30:00,
2013-03-30 01:45:00,52.3,40.0,30.17,ESE,113,0.0,-999.0,63,-99.99,,,0.00,weatherlink.com 1.10,2013-03-30 05:45:00,
2013-03-30 02:01:00,52.1,39.0,30.17,ESE,113,0.0,-999.0,62,-99.99,,,0.00,weatherlink.com 1.10,2013-03-30 06:01:00,
2013-03-30 02:16:00,52.0,40.0,30.17,ESE,113,0.0,-999.0,64,-99.99,,,0.00,weatherlink.com 1.10,2013-03-30 06:16:00,
2013-03-30 02:31:00,51.8,39.0,30.17,ESE,113,0.0,-999.0,63,-99.99,,,0.00,weatherlink.com 1.10,2013-03-30 06:31:00,
2013-03-30 02:46:00,51.7,40.0,30.16,ESE,113,0.0,-999.0,65,-99.99,,,0.00,weatherlink.com 1.10,2013-03-30 06:46:00,
2013-03-30 03:01:00,51.4,41.0,30.16,ESE,113,0.0,-999.0,68,-99.99,,,0.00,weatherlink.com 1.10,2013-03-30 07:01:00,
2013-03-30 03:16:00,51.4,42.0,30.16,ESE,113,0.0,-999.0,70,-99.99,,,0.00,weatherlink.com 1.10,2013-03-30 07:16:00,
2013-03-30 03:31:00,51.2,41.0,30.16,ESE,113,0.0,-999.0,69,-99.99,,,0.00,weatherlink.com 1.10,2013-03-30 07:31:00,
2013-03-30 03:46:00,51.1,41.0,30.16,ESE,113,0.0,-999.0,68,-99.99,,,0.00,weatherlink.com 1.10,2013-03-30 07:46:00,
2013-03-30 04:01:00,51.0,42.0,30.16,ESE,113,0.0,-999.0,71,-99.99,,,0.00,weatherlink.com 1.10,2013-03-30 08:01:00,
2013-03-30 04:16:00,50.9,42.0,30.15,ESE,113,0.0,-999.0,71,-99.99,,,0.00,weatherlink.com 1.10,2013-03-30 08:16:00,
2013-03-30 04:31:00,50.7,42.0,30.15,ESE,113,0.0,-999.0,73,-99.99,,,0.00,weatherlink.com 1.10,2013-03-30 08:31:00,
2013-03-30 05:31:00,50.1,41.0,30.14,ESE,113,0.0,-999.0,71,-99.99,,,0.00,weatherlink.com 1.10,2013-03-30 09:31:00,
2013-03-30 06:16:00,49.0,42.0,30.14,SE,129,0.0,-999.0,76,-99.99,,,0.00,weatherlink.com 1.10,2013-03-30 10:16:00,
2013-03-30 06:31:00,48.8,42.0,30.14,SE,129,0.0,-999.0,77,-99.99,,,0.00,weatherlink.com 1.10,2013-03-30 10:31:00,
2013-03-30 06:46:00,48.5,41.0,30.15,SE,132,0.0,-999.0,76,-99.99,,,0.00,weatherlink.com 1.10,2013-03-30 10:46:00,
2013-03-30 07:01:00,48.3,41.0,30.15,SSE,156,0.0,-999.0,77,-99.99,,,0.00,weatherlink.com 1.10,2013-03-30 11:01:00,
2013-03-30 07:16:00,48.2,43.0,30.16,ESE,121,0.0,-999.0,81,-99.99,,,0.00,weatherlink.com 1.10,2013-03-30 11:16:00,
2013-03-30 07:31:00,48.0,42.0,30.15,ESE,120,0.0,-999.0,79,-99.99,,,0.00,weatherlink.com 1.10,2013-03-30 11:31:00,
2013-03-30 08:01:00,47.4,42.0,30.15,ESE,108,0.0,-999.0,80,-99.99,,,0.00,weatherlink.com 1.10,2013-03-30 12:01:00,
2013-03-30 08:16:00,47.5,42.0,30.16,ESE,108,0.0,-999.0,80,-99.99,,,0.00,weatherlink.com 1.10,2013-03-30 12:16:00,
2013-03-30 08:31:00,47.7,42.0,30.16,ESE,108,0.0,-999.0,80,-99.99,,,0.00,weatherlink.com 1.10,2013-03-30 12:31:00,
2013-03-30 09:01:00,49.5,43.0,30.16,ESE,109,0.0,-999.0,77,-99.99,,,0.00,weatherlink.com 1.10,2013-03-30 13:01:00,
2013-03-30 09:16:00,50.1,42.0,30.17,East,101,0.0,-999.0,74,-99.99,,,0.00,weatherlink.com 1.10,2013-03-30 13:16:00,
2013-03-30 09:31:00,51.6,42.0,30.17,South,183,2.0,-999.0,71,-99.99,,,0.00,weatherlink.com 1.10,2013-03-30 13:31:00,
2013-03-30 09:46:00,52.4,42.0,30.16,South,177,0.0,-999.0,69,-99.99,,,0.00,weatherlink.com 1.10,2013-03-30 13:46:00,
2013-03-30 10:01:00,53.0,42.0,30.16,SE,146,2.0,-999.0,67,-99.99,,,0.00,weatherlink.com 1.10,2013-03-30 14:01:00,
2013-03-30 10:16:00,53.7,43.0,30.16,SSW,192,0.0,-999.0,67,-99.99,,,0.00,weatherlink.com 1.10,2013-03-30 14:16:00,
2013-03-30 10:46:00,55.9,43.0,30.16,SW,215,0.0,-999.0,63,-99.99,,,0.00,weatherlink.com 1.10,2013-03-30 14:46:00,
2013-03-30 11:01:00,57.0,44.0,30.15,South,171,0.0,-999.0,62,-99.99,,,0.00,weatherlink.com 1.10,2013-03-30 15:01:00,
2013-03-30 11:16:00,57.8,45.0,30.15,SW,215,0.0,-999.0,62,-99.99,,,0.00,weatherlink.com 1.10,2013-03-30 15:16:00,
2013-03-30 11:31:00,58.5,45.0,30.14,ESE,116,1.0,-999.0,62,-99.99,,,0.00,weatherlink.com 1.10,2013-03-30 15:31:00,
2013-03-30 11:46:00,59.5,46.0,30.14,South,169,4.0,-999.0,61,-99.99,,,0.00,weatherlink.com 1.10,2013-03-30 15:46:00,
2013-03-30 12:01:00,59.6,46.0,30.13,SSW,209,4.0,-999.0,61,-99.99,,,0.00,weatherlink.com 1.10,2013-03-30 16:01:00,
2013-03-30 12:31:00,62.1,47.0,30.12,SSW,209,0.0,-999.0,59,-99.99,,,0.00,weatherlink.com 1.10,2013-03-30 16:31:00,
2013-03-30 12:46:00,63.5,49.0,30.12,SSW,212,4.0,-999.0,59,-99.99,,,0.00,weatherlink.com 1.10,2013-03-30 16:46:00,
2013-03-30 13:01:00,64.1,50.0,30.11,NW,309,0.0,-999.0,60,-99.99,,,0.00,weatherlink.com 1.10,2013-03-30 17:01:00,
2013-03-30 13:16:00,64.5,50.0,30.10,NNW,335,0.0,-999.0,59,-99.99,,,0.00,weatherlink.com 1.10,2013-03-30 17:16:00,
2013-03-30 13:32:00,65.3,50.0,30.09,NW,321,8.0,-999.0,59,-99.99,,,0.00,weatherlink.com 1.10,2013-03-30 17:32:00,
2013-03-30 13:46:00,65.8,50.0,30.08,NW,305,0.0,-999.0,57,-99.99,,,0.00,weatherlink.com 1.10,2013-03-30 17:46:00,
2013-03-30 14:02:00,66.3,50.0,30.08,SSW,198,6.0,-999.0,56,-99.99,,,0.00,weatherlink.com 1.10,2013-03-30 18:02:00,
2013-03-30 14:17:00,66.7,51.0,30.07,SSW,209,0.0,-999.0,57,-99.99,,,0.00,weatherlink.com 1.10,2013-03-30 18:17:00,
2013-03-30 14:32:00,67.0,50.0,30.07,NW,315,3.0,-999.0,55,-99.99,,,0.00,weatherlink.com 1.10,2013-03-30 18:32:00,
2013-03-30 14:47:00,66.6,50.0,30.06,SSW,199,3.0,-999.0,55,-99.99,,,0.00,weatherlink.com 1.10,2013-03-30 18:47:00,
2013-03-30 15:02:00,66.7,50.0,30.06,West,274,0.0,-999.0,56,-99.99,,,0.00,weatherlink.com 1.10,2013-03-30 19:02:00,
2013-03-30 15:17:00,65.8,50.0,30.06,SW,219,3.0,-999.0,58,-99.99,,,0.00,weatherlink.com 1.10,2013-03-30 19:17:00,
2013-03-30 15:32:00,61.2,54.0,30.08,West,263,2.0,-999.0,76,-99.99,,,0.02,weatherlink.com 1.10,2013-03-30 19:32:00,
2013-03-30 15:47:00,58.3,54.0,30.07,WNW,294,2.0,-999.0,85,-99.99,,,0.05,weatherlink.com 1.10,2013-03-30 19:47:00,
2013-03-30 16:02:00,57.2,54.0,30.07,SW,230,5.0,-999.0,88,-99.99,,,0.06,weatherlink.com 1.10,2013-03-30 20:02:00,
2013-03-30 16:17:00,56.8,54.0,30.07,SW,217,7.0,-999.0,90,-99.99,,,0.08,weatherlink.com 1.10,2013-03-30 20:17:00,
2013-03-30 16:32:00,56.3,54.0,30.07,SW,220,0.0,-999.0,91,-99.99,,,0.16,weatherlink.com 1.10,2013-03-30 20:32:00,
2013-03-30 16:47:00,56.0,54.0,30.07,WSW,256,0.0,-999.0,91,-99.99,,,0.26,weatherlink.com 1.10,2013-03-30 20:47:00,
2013-03-30 17:02:00,55.5,53.0,30.06,WNW,283,0.0,-999.0,91,-99.99,,,0.47,weatherlink.com 1.10,2013-03-30 21:02:00,
2013-03-30 17:17:00,55.5,53.0,30.06,West,281,0.0,-999.0,91,-99.99,,,0.50,weatherlink.com 1.10,2013-03-30 21:17:00,
2013-03-30 17:32:00,55.5,53.0,30.06,WNW,284,0.0,-999.0,91,-99.99,,,0.50,weatherlink.com 1.10,2013-03-30 21:32:00,
2013-03-30 17:47:00,55.1,53.0,30.05,West,281,0.0,-999.0,91,-99.99,,,0.52,weatherlink.com 1.10,2013-03-30 21:47:00,
2013-03-30 18:02:00,55.2,53.0,30.05,West,281,0.0,-999.0,91,-99.99,,,0.52,weatherlink.com 1.10,2013-03-30 22:02:00,
2013-03-30 18:17:00,55.3,53.0,30.05,West,281,0.0,-999.0,90,-99.99,,,0.53,weatherlink.com 1.10,2013-03-30 22:17:00,
2013-03-30 18:32:00,55.3,53.0,30.04,West,281,0.0,-999.0,90,-99.99,,,0.00,weatherlink.com 1.10,2013-03-30 22:32:00,
2013-03-30 19:02:00,55.6,53.0,30.03,West,281,0.0,-999.0,90,-99.99,,,0.01,weatherlink.com 1.10,2013-03-30 23:02:00,
2013-03-30 19:17:00,55.6,53.0,30.03,West,281,0.0,-999.0,90,-99.99,,,0.01,weatherlink.com 1.10,2013-03-30 23:17:00,
2013-03-30 19:32:00,55.5,53.0,30.02,West,281,0.0,-999.0,90,-99.99,,,0.02,weatherlink.com 1.10,2013-03-30 23:32:00,
2013-03-30 19:47:00,55.4,53.0,30.02,West,281,0.0,-999.0,90,-99.99,,,0.04,weatherlink.com 1.10,2013-03-30 23:47:00,
2013-03-30 20:02:00,55.4,53.0,30.02,SSW,194,0.0,-999.0,90,-99.99,,,0.07,weatherlink.com 1.10,2013-03-31 00:02:00,
2013-03-30 20:17:00,55.2,52.0,30.01,ESE,109,0.0,-999.0,90,-99.99,,,0.09,weatherlink.com 1.10,2013-03-31 00:17:00,
2013-03-30 20:32:00,55.1,52.0,30.01,NE,55,0.0,-999.0,90,-99.99,,,0.09,weatherlink.com 1.10,2013-03-31 00:32:00,
2013-03-30 20:47:00,54.7,52.0,30.02,NNW,348,0.0,-999.0,91,-99.99,,,0.11,weatherlink.com 1.10,2013-03-31 00:47:00,
2013-03-30 21:02:00,54.5,52.0,30.00,SE,139,0.0,-999.0,91,-99.99,,,0.12,weatherlink.com 1.10,2013-03-31 01:02:00,
2013-03-30 21:17:00,54.5,52.0,30.01,SE,140,0.0,-999.0,90,-99.99,,,0.12,weatherlink.com 1.10,2013-03-31 01:17:00,
2013-03-30 21:32:00,54.4,52.0,30.01,South,187,1.0,-999.0,90,-99.99,,,0.13,weatherlink.com 1.10,2013-03-31 01:32:00,
2013-03-30 21:47:00,54.2,51.0,30.01,South,188,0.0,-999.0,90,-99.99,,,0.13,weatherlink.com 1.10,2013-03-31 01:47:00,
2013-03-30 22:02:00,54.2,51.0,30.01,South,184,0.0,-999.0,90,-99.99,,,0.14,weatherlink.com 1.10,2013-03-31 02:02:00,
2013-03-30 22:17:00,54.5,52.0,30.01,SE,127,0.0,-999.0,90,-99.99,,,0.14,weatherlink.com 1.10,2013-03-31 02:17:00,
2013-03-30 22:32:00,54.6,52.0,30.01,SSE,156,0.0,-999.0,90,-99.99,,,0.15,weatherlink.com 1.10,2013-03-31 02:32:00,
2013-03-30 22:47:00,54.6,52.0,30.01,SSW,202,0.0,-999.0,90,-99.99,,,0.15,weatherlink.com 1.10,2013-03-31 02:47:00,
2013-03-30 23:02:00,54.6,52.0,30.01,South,184,1.0,-999.0,90,-99.99,,,0.16,weatherlink.com 1.10,2013-03-31 03:02:00,
2013-03-30 23:17:00,54.6,52.0,30.01,South,190,2.0,-999.0,90,-99.99,,,0.16,weatherlink.com 1.10,2013-03-31 03:17:00,